Hourly Data Report for October 29, 2015

All times are specified in Local Standard Time (LST). Add 1 hour to adjust for Daylight Saving Time where and when it is observed.

CHARLOTTETOWN A
PRINCE EDWARD ISLAND

46°17'21.000" N
63°07'09.000" W
48.50 m
8300301
71706
YYG

Download Data

Hourly Data (October 2015)
Hourly Data Report for October 29, 2015
Temp Definition
°C
Dew Point Temp Definition
°C
Rel Hum Definition
%
Wind Dir Definition
10's deg

Wind Spd Definition
km/h
Visibility Definition
km
Stn Press Definition
kPa
Hmdx Definition


Wind Chill Definition


Weather Definition


TIME
00:00 Legend Double Dagger 6.1 1.5 72 16 9 24.1 102.15     LegendNANA
01:00 Legend Double Dagger 7.0 3.3 77 18 16 24.1 102.05     LegendNANA
02:00 Legend Double Dagger 7.4 2.7 72 18 16 24.1 102.00     Cloudy
03:00 Legend Double Dagger 6.7 4.5 86 16 16 16.1 101.90     Moderate Rain
04:00 Legend Double Dagger 5.5 4.6 94 12 25 9.7 101.60     Moderate Rain,Fog
05:00 Legend Double Dagger 5.6 4.6 93 13 23 16.1 101.37     Rain
06:00 Legend Double Dagger 6.2 5.3 94 14 32 12.9 101.14     Rain
07:00 Legend Double Dagger 7.4 6.5 94 13 35 16.1 100.89     Rain,Rain Showers
08:00 Legend Double Dagger 8.2 7.0 92 14 39 24.1 100.71     Rain Showers
09:00 Legend Double Dagger 9.8 8.6 92 15 34 24.1 100.47     LegendNANA
10:00 Legend Double Dagger 11.6 10.5 93 15 42 24.1 100.22     Rain Showers
11:00 Legend Double Dagger 13.1 11.8 92 16 41 24.1 100.00     Rain Showers
12:00 Legend Double Dagger 13.6 13.0 96 17 44 4.8 99.85     Heavy Rain Showers,Fog
13:00 Legend Double Dagger 14.3 13.8 97 16 45 8.1 99.63     Moderate Rain Showers,Fog
14:00 Legend Double Dagger 14.8 14.3 97 17 45 9.7 99.47     Rain Showers,Fog
15:00 Legend Double Dagger 15.3 14.5 95 17 41 24.1 99.26     Rain Showers
16:00 Legend Double Dagger 15.5 14.7 95 18 39 24.1 99.13     Rain Showers
17:00 Legend Double Dagger 17.1 15.6 91 19 37 24.1 99.09     Cloudy
18:00 Legend Double Dagger 17.1 15.5 90 19 35 24.1 98.99     LegendNANA
19:00 Legend Double Dagger 16.6 15.3 92 18 27 24.1 98.91     LegendNANA
20:00 Legend Double Dagger 16.8 15.7 93 18 29 19.3 98.83     Cloudy
21:00 Legend Double Dagger 16.5 15.5 94 19 27 24.1 98.77     LegendNANA
22:00 Legend Double Dagger 16.0 14.7 92 20 25 24.1 98.69     LegendNANA
23:00 Legend Double Dagger 16.1 14.3 89 20 30 24.1 98.62     Mostly Cloudy

Notes on Data Quality.

Legend

  • E = Estimated
  • M = Missing
  • NA = Not Available
  • ‡ = Partner data that is not subject to review by the National Climate Archives
Date modified: